www.pogodaiklimat.ru

Погода и климат >> Архив погоды >> Россия >> Краснодарский край >> Тамань


ПОГОДА в Тамани

  • Прогноз погоды в Тамани
  • Монитор погоды в Тамани

АРХИВ ПОГОДЫ в Тамани

Время (UTC), дата Ветер
(напр.,м/с)
 
Видим.   Явления Облачность Т
(С)
Тd
(С)
f
(%)
Тe
(С)
Тes
(С)
Комфортность P
(гПа)
Po
(гПа)
Тmin
(С)
Tmax
(С)
R
(мм)
R24
(мм)
S
(см)
00 10.09 СВ 5-10
{10}
10 км ясно +19.2 +8.6 50 +20 +20 1017.0 1015.1
03 10.09 СВ 6
{11}
20 км ясно +17.9 +9.2 57 +17 +17 1016.9 1015.0 +17.9
06 10.09 В 7-11
{13}
20 км ясно +19.4 +9.3 52 +20 +21 1017.8 1015.9 +17.8
09 10.09 СВ 7-11
{13}
20 км ясно +23.0 +11.6 49 +25 +29 комфорт 1018.1 1016.3
12 10.09 СВ 6-10
{12}
20 км ясно +25.3 +10.5 39 +26 +29 жарко 1017.9 1016.1
15 10.09 СВ 5-10
{11}
20 км ясно +23.5 +13.7 54 +26 +26 жарко 1017.9 1016.0 +26.0
18 10.09 СВ 3
{10}
10 км ясно +21.2 +13.4 61 +24 +24 комфорт 1018.9 1017.0
21 10.09 СВ 4 10 км ясно +21.2 +7.5 41 +22 +22 комфорт 1018.9 1017.0
00 11.09 СВ 5
{10}
10 км ясно +20.3 +7.4 43 +21 +21 комфорт 1019.2 1017.3
03 11.09 СВ 6
{11}
10 км ясно +18.5 +8.3 51 +18 +18 1020.0 1018.1 +18.5
06 11.09 СВ 6-11
{12}
20 км ясно +20.1 +11.3 57 +21 +23 комфорт 1021.1 1019.3 +18.0
09 11.09 СВ 6-11
{12}
20 км ясно +23.4 +13.7 54 +27 +31 душно 1021.3 1019.4
12 11.09 СВ 8-11
{13}
20 км ясно +27.0 +12.0 39 +28 +30 жарко 1021.0 1019.1
15 11.09 СВ 5
{12}
20 км ясно +23.8 +14.6 56 +26 +27 жарко 1020.9 1019.0 +27.0
18 11.09 СВ 3 10 км ясно +21.7 +13.3 59 +24 +24 комфорт 1021.9 1020.0
21 11.09 СВ 5
{10}
10 км ясно +21.4 +7.7 41 +22 +22 комфорт 1021.6 1019.8
00 12.09 СВ 4 10 км ясно +19.0 +7.0 46 +19 +19 1021.4 1019.5
03 12.09 СВ 5 20 км ясно +16.7 +7.3 54 +16 +16 1022.1 1020.2 +16.7
06 12.09 СВ 6
{11}
20 км ясно +20.8 +8.1 44 +22 +24 комфорт 1023.0 1021.1 +16.6
09 12.09 СВ 5-11
{11}
20 км ясно +24.1 +12.1 47 +26 +32 жарко 1022.5 1020.7
12 12.09 СВ 5
{11}
20 км ясно +24.9 +11.1 42 +26 +30 жарко 1021.5 1019.6
15 12.09 С 2
{10}
20 км ясно +23.2 +14.8 59 +27 +27 душно 1021.0 1019.1 +25.1
18 12.09 СВ 3 20 км ясно +21.6 +15.2 67 +25 +25 комфорт 1021.9 1020.0
21 12.09 СВ 3 10 км ясно +19.8 +14.5 71 +22 +22 комфорт 1021.5 1019.6
00 13.09 СВ 3 10 км ясно +18.4 +11.3 63 +19 +19 1021.0 1019.1
03 13.09 СВ 2 20 км ясно +17.3 +10.6 65 +18 +18 1021.1 1019.2 +17.3
06 13.09 СВ 4 20 км ясно +21.5 +12.3 56 +24 +27 комфорт 1022.1 1020.2 +17.2
09 13.09 СВ 5
{10}
20 км ясно +23.3 +11.9 49 +26 +32 жарко 1021.6 1019.7
12 13.09 С 2
{10}
20 км ясно +24.4 +12.8 48 +26 +34 жарко 1020.5 1018.6
15 13.09 С 1 20 км ясно +22.7 +13.8 57 +26 +26 жарко 1019.9 1018.0 +24.6
18 13.09 СВ 2 10 км ясно +20.5 +13.9 66 +24 +24 комфорт 1020.6 1018.7
21 13.09 СВ 2 10 км ясно +19.4 +14.4 73 +22 +22 комфорт 1020.3 1018.4
00 14.09 СВ 2 10 км ясно +17.2 +9.6 61 +18 +18 1020.0 1018.1
03 14.09 В 2 20 км ясно +16.4 +8.3 59 +17 +17 1020.1 1018.1 +16.4
06 14.09 СВ 2 20 км ясно +20.5 +9.4 49 +23 +27 комфорт 1020.7 1018.8 +15.9
09 14.09 С 1 20 км ясно +24.4 +15.9 59 +28 +41 душно 1019.9 1018.1
12 14.09 С 1 20 км ясно +25.1 +15.5 55 +28 +37 жарко 1019.3 1017.5
15 14.09 С 1 20 км ясно +22.4 +16.6 70 +27 +27 душно 1018.6 1016.7 +25.7
18 14.09 ЮЗ 1 10 км ясно +17.4 +14.9 85 +18 +18 1018.7 1016.8
21 14.09 ЮЗ 2 10 км ясно +16.3 +13.5 83 +16 +16 1019.0 1017.1
00 15.09 штиль 0 10 км 10/0
[Cs]
+16.2 +12.5 79 +16 +16 1018.3 1016.4
03 15.09 ЮЗ 1 20 км 10/10 1000 м
[Sc]
+20.5 +15.8 74 +25 +25 комфорт 1019.3 1017.4 +15.9
06 15.09 Ю 1 20 км 3/3 1500 м
[Sc]
+21.4 +14.3 64 +24 +28 комфорт 1020.8 1018.9
09 15.09 В 1 20 км 3/3 1000 м
[Cu med, cong]
+22.6 +14.2 59 +26 +35 жарко 1022.0 1020.1
12 15.09 З 1 20 км ясно +22.5 +11.6 50 +25 +34 комфорт 1021.7 1019.8
15 15.09 Ю 1 20 км ясно +19.9 +7.6 45 +22 +22 комфорт 1021.8 1019.9 +23.2
18 15.09 штиль 0 10 км ясно +18.8 +9.1 53 +19 +19 1022.0 1020.1
21 15.09 штиль 0 10 км ясно +18.5 +8.7 53 +19 +19 1020.9 1019.0
00 16.09 ЮВ 1 10 км ясно +14.0 +8.5 69 +14 +14 1020.3 1018.4
03 16.09 Ю 1 20 км ясно +10.4 +7.2 81 +10 +10 1019.3 1017.3 +10.4
06 16.09 СВ 1 20 км ясно +20.4 +11.7 57 +23 +28 комфорт 1018.4 1016.5
09 16.09 С 1 20 км ясно +22.3 +11.5 50 +24 +37 комфорт 1017.3 1015.4
12 16.09 С 1 20 км ясно +23.9 +9.2 39 +25 +33 комфорт 1015.8 1013.9
15 16.09 штиль 0 20 км ясно +20.9 +8.5 45 +22 +22 комфорт 1014.5 1012.6 +24.5
18 16.09 Ю 1 10 км ясно +15.2 +7.5 60 +16 +16 1014.5 1012.6
21 16.09 ЮЗ 2 10 км ясно +15.8 +10.3 70 +16 +16 1014.3 1012.4

 

Местоположение метеостанции Тамань (Краснодарский край, Россия): широта 45.22 долгота 36.72 высота над уровнем моря 17 м.

В архиве по умолчанию представлена погода в Тамани за последнюю неделю. Архивные данные за месяц целиком и за предыдущие месяцы, начиная с января 2011 года, Вы можете получить, выбрав интересующий диапазон дат из раскрывающегося списка и нажав кнопку "Ввод!".


*Определитесь, кто Вы:
робот инопланетянин человек

Внимание! Время в таблицах - всемирное. Для получения местного времени необходимо прибавить поправку, которая равна 3 ч.

Смотрите также архив погоды в соседних городах и на ближайших метеорологических станциях:

Погода в Опасном (Крым, Россия) (18 км)
Погода в Керчи (Крым, Россия) (28 км)
Погода в Темрюке (Краснодарский край, Россия) (53 км)
Погода в Анапе (Краснодарский край, Россия) (58 км)
Погода в Мысовом (Крым, Россия) (75 км)
Погода в Новороссийске (Краснодарский край, Россия) (105 км)
Погода в Владиславовке (Крым, Россия) (105 км)
Погода в Крымске (Краснодарский край, Россия) (106 км)
Погода в Феодосии (Крым, Россия) (107 км)
Погода в Славянске-на-Кубани (Краснодарский край, Россия) (110 км)

Пояснения к столбцам:

Ветер - указаны скорость ветра в м/с - средняя за 10 мин, порывы в срок и между сроками (в фигурных скобках) и направление, откуда дует ветер: С - северный, СВ - северо-восточный, В - восточный, ЮВ - юго-восточный, Ю - южный, ЮЗ - юго-западный, З - западный, СЗ - северо-западный.
Видимость - горизонтальная дальность видимости в метрах или километрах. При видимости от 1 до 10 км при отсутствии осадков обычно наблюдается дымка, при ухудшении видимости до 1 км и менее - туман. В сухую погоду видимость может ухудшаться дымом, пылью или мглою.
Явления - указаны атмосферные явления, наблюдавшиеся в срок или в последний час перед сроком; фигурными скобками обозначены явления, наблюдавшиеся между сроками (за 1-3 часа до срока); квадратными скобками обозначены град или гололедные отложения с указанием их диаметра в мм.
Облачность - указаны через наклонную черту общая и нижняя облачность в баллах и высота нижней границы облаков в метрах; квадратными скобками обозначены формы облаков: Ci - перистые, Cs - перисто-слоистые, Cc - перисто-кучевые, Ac - высококучевые, As - высокослоистые, Sc - слоисто-кучевые, Ns - слоисто-дождевые, Cu - кучевые, Cb - кучево-дождевые. Подробнее классификацию облаков см. в Атласе облаков (PDF).
T - Температура воздуха - температура, измеренная на высоте 2 м над землей.
Td - Температура точки росы - температура, при понижении до которой содержащийся в воздухе водяной пар достигнет насыщения.
f - Относительная влажность воздуха - влажноcть воздуха, измеренная на высоте 2 м над землей.
Te - Эффективная температура - температура, которую ощущает одетый по сезону человек в тени. Характеристика душности погоды. При расчете учитывается влияние влажности воздуха и скорости ветра на теплоощущения человека.
Tes - Эффективная температура на солнце - температура, которую ощущает человек, с поправкой на солнечный нагрев. Характеристика знойности погоды. Зависит от высоты солнца над горизонтом, облачности и скорости ветра. Ночью, в пасмурную погоду, а также при ветре 12 м/с и более поправка равна нулю.
P - Атмосферное давление - приведенное к уровню моря атмосферное давление.
Po - Атмосферное давление - измеренное на уровне метеостанции атмосферное давление.
Tmin - Минимальная температура - минимум температуры воздуха на высоте 2 м над землей.
Tmax - Максимальная температура - максимум температуры воздуха на высоте 2 м над землей.
R - Количество осадков - Количество выпавших осадков за период времени, мм. При наведении курсора мыши на число - период времени, за который выпало указанное количество осадков.
R24 - Количество осадков - Количество выпавших осадков за 24 часа, мм.
S - Снежный покров - Высота снежного покрова, см. При наведении курсора мыши на число - состояние снежного покрова и степень покрытия местности в баллах.